Regional Weather Roundup
Issued by NWS

Home | Current Version | Previous Version | Graphics & Text | Print | Product List | Glossary On
Versions: 1 2 3 4 5 6 7 8 9 10 11 12 13 14 15 16 17 18 19 20 21 22 23 24 25 26 27 28 29 30 31 32 33 34 35 36 37 38 39 40 41 42 43 44 45 46 47 48 49 50
000
ASUS45 KBOI 180010
RWRID
WEATHER ROUNDUP FOR IDAHO
NATIONAL WEATHER SERVICE BOISE ID
600 PM MDT WED SEP 17 2014

NOTE: "FAIR" INDICATES FEW OR NO CLOUDS BELOW 12000 FEET
WITH NO SIGNIFICANT WEATHER AND/OR OBSTRUCTIONS TO VISIBILITY

IDZ012-014-180100-
SOUTHWEST IDAHO


CITY           SKY/WX    TMP DP  RH WIND       PRES   REMARKS
BOISE          MOSUNNY   91  35  13 NW6       29.73F
CALDWELL       MOSUNNY   90  46  22 CALM      29.73F
MOUNTAIN HOME  MOSUNNY   93  39  15 VRB2      29.73F
$$

IDZ016-017-180100-
SOUTHCENTRAL IDAHO


CITY           SKY/WX    TMP DP  RH WIND       PRES   REMARKS
BURLEY         MOSUNNY   90  44  20 NE5       29.82F
JEROME         SUNNY     89  50  26 N3        29.82F
TWIN FALLS     MOSUNNY   88  43  20 E5        29.83F
$$

IDZ019>023-180100-
SOUTHEAST IDAHO


CITY           SKY/WX    TMP DP  RH WIND       PRES   REMARKS
IDAHO FALLS    PTSUNNY   88  43  20 NE8       29.90F
POCATELLO      MOSUNNY   89  38  16 SW8       29.87F
REXBURG        PTSUNNY   83  41  22 NE5       29.93F
$$

IDZ006-010-011-018-031-032-180100-
CENTRAL IDAHO MOUNTAINS


CITY           SKY/WX    TMP DP  RH WIND       PRES   REMARKS
MCCALL         MOSUNNY   77  37  23 S9        29.90F
HAILEY         MOSUNNY   81  46  30 SE7       29.94F
STANLEY          N/A     80  35  19 NE5       30.01F
SALMON         CLOUDY    73  45  35 CALM      29.87F
CHALLIS        PTSUNNY   80  43  26 NW5       29.91F
$$

IDZ002-004-006-007-026-180100-
NORTHERN IDAHO


CITY           SKY/WX    TMP DP  RH WIND       PRES   REMARKS
LEWISTON       CLOUDY    85  46  25 W6        29.66F SMOKE
LOWELL           N/A     68  61  78 CALM      29.70F
COEUR D`ALENE  CLOUDY    82  41  23 NE5       29.70F
MULLAN PASS    CLOUDY    69  43  38 CALM      29.94F
$$



USA.gov is the U.S. government's official web portal to all federal, state and local government web resources and services.